Location: Alphen
(52.1351°N, 4.6549°E)
Time: 01:33:04
(UTC+00:00)

Cosmos 1400 Rocket - Pass Details

Date: 27 January 2021
Orbit: 520 x 568 km, 81.2° (Epoch: 27 February)

Event Time Altitude Azimuth Distance (km) Brightness Sun altitude
Exits shadow 04:53:29 25° 179° (S) 1,157 4.4 -23.7°
Maximum altitude 04:55:47 71° 101° (E) 606 3.1 -23.3°
Drops below altitude 10° 04:59:56 10° 17° (NNE) 1,882 5.7 -22.7°
Sets 05:02:08 0° 15° (NNE) 2,783 6.6 -22.3°
